Change the Weather History Date:

Saturday, January 12, 2013

  Actual Average Record
Temperature  
Mean Temperature 6 °F -  
Max Temperature 16 °F 34 °F 67 °F (1987)
Min Temperature -3 °F 8 °F -20 °F (1963)
Degree Days  
Heating Degree Days 58    
Moisture  
Dew Point 2 °F    
Average Humidity 72    
Maximum Humidity 84    
Minimum Humidity 63    
Precipitation  
Precipitation 0.00 in - - ()
Sea Level Pressure  
Sea Level Pressure 30.01 in    
Wind  
Wind Speed 15 mph (NW)    
Max Wind Speed 26 mph    
Max Gust Speed 32 mph    
Visibility 10 miles    
Events      
Averages and records for this station are not official NWS values.
T = Trace of Precipitation, MM = Missing Value Source: NWS Daily Summary

Daily Weather History Graph

Daily Weather History Graph

Search for Another Location

Airport or City:

Trip Planner

Search our weather history database for the weather conditions in past years. The results will help you decide how hot, cold, wet, or windy it might be!

Date:

Astronomy

Jan. 12, 2013 Rise Set
Actual Time 7:11 AM MST 4:40 PM MST
Civil Twilight 6:40 AM MST 5:10 PM MST
Nautical Twilight 6:06 AM MST 5:44 PM MST
Astronomical Twilight 5:33 AM MST 6:18 PM MST
Moon 7:30 AM MST (1/12) 6:12 PM MST (1/12)
Length of Visible Light 10h 30m
Length of Day
9h 29m
New Moon, 1% of the Moon is Illuminated
Jan 12
New Moon
Jan 18
First Quarter
Jan 26
Full
Feb 3
Last Quarter
Feb 10
New

Hourly Weather History & Observations

Time (MST) Temp. Windchill Dew Point Humidity Pressure Visibility Wind Dir Wind Speed Gust Speed Precip Events Conditions
12:15 AM 11.3 °F -6.0 °F 4.1 °F 73% 29.86 in 10.0 mi NW 17.3 mph - N/A   Clear
12:35 AM 10.9 °F -6.5 °F 3.9 °F 73% 29.87 in 10.0 mi WNW 17.3 mph - N/A   Clear
12:55 AM 10.8 °F -6.2 °F 3.6 °F 73% 29.88 in 10.0 mi WNW 16.1 mph 21.9 mph N/A   Clear
1:15 AM 10.4 °F -4.8 °F 3.2 °F 73% 29.89 in 10.0 mi WNW 12.7 mph - N/A   Clear
1:35 AM 9.0 °F -7.3 °F 2.7 °F 76% 29.90 in 10.0 mi WNW 13.8 mph - N/A   Clear
1:55 AM 10.4 °F -6.6 °F 2.8 °F 72% 29.90 in 10.0 mi NW 16.1 mph - N/A   Clear
2:15 AM 10.9 °F -7.0 °F 2.8 °F 70% 29.91 in 10.0 mi WNW 18.4 mph - N/A   Clear
2:35 AM 10.6 °F -6.4 °F 2.3 °F 69% 29.91 in 10.0 mi NW 16.1 mph - N/A   Clear
2:55 AM 10.2 °F -6.3 °F 2.1 °F 70% 29.91 in 10.0 mi WNW 15.0 mph 23.0 mph N/A   Clear
3:15 AM 10.0 °F -7.1 °F 1.9 °F 70% 29.92 in 10.0 mi West 16.1 mph 21.9 mph N/A   Clear
3:35 AM 9.7 °F -5.0 °F 1.4 °F 69% 29.93 in 10.0 mi West 11.5 mph - N/A   Clear
3:55 AM 9.0 °F -5.9 °F 1.2 °F 71% 29.93 in 10.0 mi WNW 11.5 mph - N/A   Clear
4:15 AM 9.5 °F -7.2 °F 1.2 °F 69% 29.93 in 10.0 mi WNW 15.0 mph - N/A   Clear
4:35 AM 9.5 °F -7.2 °F 1.0 °F 69% 29.93 in 10.0 mi WNW 15.0 mph - N/A   Clear
5:15 AM 8.1 °F -6.2 °F 0.1 °F 70% 29.93 in 10.0 mi WNW 10.4 mph - N/A   Clear
5:35 AM 7.0 °F -9.1 °F -0.0 °F 73% 29.94 in 10.0 mi WNW 12.7 mph - N/A   Clear
5:55 AM 8.6 °F -8.9 °F 0.5 °F 70% 29.94 in 10.0 mi WNW 16.1 mph 20.7 mph N/A   Clear
6:15 AM 8.6 °F -7.0 °F 0.5 °F 70% 29.96 in 10.0 mi NW 12.7 mph - N/A   Clear
6:35 AM 7.7 °F -8.2 °F 0.1 °F 71% 29.97 in 10.0 mi NW 12.7 mph - N/A   Clear
6:55 AM 7.5 °F -9.7 °F -0.0 °F 71% 29.97 in 10.0 mi NW 15.0 mph - N/A   Clear
7:15 AM 7.5 °F -10.3 °F -0.0 °F 71% 29.98 in 10.0 mi NW 16.1 mph - N/A   Clear
7:35 AM 8.1 °F -7.7 °F 0.5 °F 71% 29.99 in 10.0 mi NW 12.7 mph - N/A   Clear
7:55 AM 8.6 °F -7.0 °F 1.0 °F 71% 30.01 in 10.0 mi WNW 12.7 mph - N/A   Clear
8:15 AM 9.5 °F -7.8 °F 1.9 °F 71% 30.02 in 10.0 mi NW 16.1 mph 21.9 mph N/A   Clear
8:35 AM 9.9 °F -8.9 °F 2.3 °F 71% 30.02 in 10.0 mi NW 19.6 mph 26.5 mph N/A   Clear
8:55 AM 10.0 °F -8.1 °F 2.8 °F 73% 30.03 in 10.0 mi NW 18.4 mph 24.2 mph N/A   Clear
9:15 AM 10.4 °F -9.5 °F 3.2 °F 73% 30.01 in 10.0 mi NW 23.0 mph 28.8 mph N/A   Clear
9:35 AM 10.9 °F -7.9 °F 3.0 °F 70% 30.02 in 10.0 mi NW 20.7 mph 28.8 mph N/A   Clear
9:55 AM 12.0 °F -6.0 °F 3.4 °F 68% 30.03 in 10.0 mi NNW 19.6 mph 25.3 mph N/A   Clear
10:15 AM 12.6 °F -4.9 °F 3.9 °F 68% 30.04 in 10.0 mi NNW 18.4 mph 26.5 mph N/A   Clear
10:55 AM 13.8 °F -2.7 °F 5.5 °F 70% 30.04 in 10.0 mi NW 17.3 mph - N/A   Clear
11:15 AM 14.2 °F -1.2 °F 5.7 °F 69% 30.03 in 10.0 mi NNW 15.0 mph 21.9 mph N/A   Clear
11:35 AM 14.5 °F -1.8 °F 5.9 °F 69% 30.02 in 10.0 mi NNW 17.3 mph - N/A   Clear
11:55 AM 15.4 °F -0.6 °F 6.6 °F 68% 30.02 in 10.0 mi NW 17.3 mph - N/A   Clear
12:15 PM 15.8 °F -0.2 °F 7.0 °F 68% 30.02 in 10.0 mi NNW 17.3 mph - N/A   Clear
12:35 PM 16.5 °F -0.6 °F 7.3 °F 67% 30.01 in 10.0 mi NNW 20.7 mph - N/A   Clear
12:55 PM 16.5 °F -0.6 °F 6.8 °F 66% 30.01 in 10.0 mi NNW 20.7 mph 26.5 mph N/A   Clear
1:15 PM 16.3 °F -1.6 °F 5.9 °F 64% 30.01 in 10.0 mi NNW 23.0 mph 29.9 mph N/A   Clear
1:35 PM 16.5 °F -2.1 °F 5.9 °F 63% 30.00 in 10.0 mi North 25.3 mph 32.2 mph N/A   Clear
1:55 PM 16.5 °F -2.4 °F 6.3 °F 64% 30.00 in 10.0 mi NNW 26.5 mph 31.1 mph N/A   Clear
2:15 PM 16.0 °F -3.2 °F 6.3 °F 66% 30.00 in 10.0 mi NNW 26.5 mph 32.2 mph N/A   Clear
2:35 PM 15.8 °F -2.7 °F 6.3 °F 66% 30.01 in 10.0 mi North 24.2 mph 28.8 mph N/A   Clear
2:55 PM 15.8 °F -1.5 °F 5.9 °F 65% 30.02 in 10.0 mi North 20.7 mph - N/A   Clear
3:15 PM 15.4 °F -1.1 °F 6.4 °F 68% 30.02 in 10.0 mi NNW 18.4 mph - N/A   Clear
3:35 PM 14.7 °F -0.5 °F 5.5 °F 67% 30.02 in 10.0 mi NNW 15.0 mph - N/A   Clear
3:55 PM 14.0 °F -3.0 °F 4.8 °F 67% 30.02 in 10.0 mi NNW 18.4 mph 23.0 mph N/A   Clear
4:15 PM 13.3 °F -3.4 °F 4.6 °F 68% 30.03 in 10.0 mi NNW 17.3 mph 20.7 mph N/A   Clear
4:35 PM 12.4 °F -1.6 °F 3.9 °F 69% 30.04 in 10.0 mi NNW 11.5 mph - N/A   Clear
4:55 PM 11.3 °F -2.2 °F 3.4 °F 70% 30.05 in 10.0 mi NNW 10.4 mph - N/A   Clear
5:15 PM 9.3 °F -2.8 °F 2.7 °F 74% 30.05 in 10.0 mi NNW 8.1 mph - N/A   Clear
5:35 PM 9.3 °F -1.7 °F 2.8 °F 75% 30.06 in 10.0 mi NNW 6.9 mph - N/A   Clear
5:55 PM 8.4 °F -0.1 °F 1.8 °F 74% 30.07 in 10.0 mi NW 4.6 mph - N/A   Clear
6:15 PM 5.5 °F -1.5 °F -0.2 °F 77% 30.08 in 10.0 mi NNW 3.5 mph - N/A   Clear
6:35 PM 7.9 °F -3.5 °F 1.9 °F 77% 30.08 in 10.0 mi NNW 6.9 mph - N/A   Clear
6:55 PM 7.0 °F -5.7 °F 1.0 °F 77% 30.08 in 10.0 mi NNW 8.1 mph - N/A   Clear
7:15 PM 5.7 °F -8.2 °F -0.2 °F 77% 30.09 in 10.0 mi NNW 9.2 mph - N/A   Clear
7:35 PM 3.9 °F -9.4 °F -1.3 °F 79% 30.09 in 10.0 mi NNW 8.1 mph - N/A   Clear
7:55 PM 3.2 °F -9.1 °F -2.2 °F 78% 30.09 in 10.0 mi NW 6.9 mph - N/A   Clear
8:15 PM 2.1 °F -10.4 °F -3.1 °F 79% 30.09 in 10.0 mi NW 6.9 mph - N/A   Clear
8:35 PM 1.9 °F -12.9 °F -2.7 °F 81% 30.09 in 10.0 mi NW 9.2 mph - N/A   Clear
8:55 PM 1.6 °F -8.0 °F -3.6 °F 79% 30.09 in 10.0 mi NW 4.6 mph - N/A   Clear
9:15 PM -0.0 °F -9.9 °F -4.4 °F 82% 30.09 in 10.0 mi West 4.6 mph - N/A   Clear
9:35 PM -0.0 °F -9.9 °F -4.4 °F 82% 30.10 in 10.0 mi West 4.6 mph - N/A   Clear
9:55 PM 0.7 °F - -3.8 °F 81% 30.10 in 10.0 mi Calm Calm - N/A   Clear
10:15 PM 0.5 °F -7.3 °F -4.0 °F 81% 30.11 in 10.0 mi WSW 3.5 mph - N/A   Clear
10:35 PM -1.5 °F -11.6 °F -5.3 °F 84% 30.11 in 10.0 mi West 4.6 mph - N/A   Clear
10:55 PM -0.9 °F -8.9 °F -5.1 °F 83% 30.10 in 10.0 mi West 3.5 mph - N/A   Clear
11:15 PM -3.1 °F -15.2 °F -7.2 °F 82% 30.11 in 10.0 mi West 5.8 mph - N/A   Clear
11:35 PM -3.5 °F -13.9 °F -7.8 °F 82% 30.10 in 10.0 mi West 4.6 mph - N/A   Clear
11:55 PM -3.6 °F -12.0 °F -7.8 °F 82% 30.11 in 10.0 mi West 3.5 mph - N/A   Clear